Date,TemperatureHighF,TemperatureAvgF,TemperatureLowF,DewpointHighF,DewpointAvgF,DewpointLowF,HumidityHigh,HumidityAvg,HumidityLow,PressureMaxIn,PressureMinIn,WindSpeedMaxMPH,WindSpeedAvgMPH,GustSpeedMaxMPH,PrecipitationSumIn
2013-6-1,76,65,50,-100,-100,-100,0,0,100,0.00,40.00,0,-999,0,0.00
2013-6-2,80,67,42,-100,-100,-100,0,0,100,0.00,40.00,0,-999,0,0.00
2013-6-3,95,74,62,-100,-100,-100,0,0,100,0.00,40.00,0,-999,0,0.00
2013-6-4,88,73,62,-100,-100,-100,0,0,100,0.00,40.00,0,-999,0,0.00
2013-6-5,66,58,55,-100,-100,-100,0,0,100,0.00,40.00,0,-999,0,0.00
2013-6-6,75,62,54,-100,-100,-100,0,0,100,0.00,40.00,0,-999,0,0.00
2013-6-7,85,65,57,-100,-100,-100,0,0,100,0.00,40.00,0,-999,0,0.00
2013-6-8,83,69,56,-100,-100,-100,0,0,100,0.00,40.00,0,-999,0,0.00
2013-6-9,87,74,54,-100,-100,-100,0,0,100,0.00,40.00,0,-999,0,0.00
2013-6-10,101,84,67,-100,-100,-100,0,0,100,0.00,40.00,0,-999,0,0.00
2013-6-11,100,90,72,-100,-100,-100,0,0,100,0.00,40.00,0,-999,0,0.00
2013-6-12,98,82,69,-100,-100,-100,0,0,100,0.00,40.00,0,-999,0,0.00
2013-6-13,95,82,66,-100,-100,-100,0,0,100,0.00,40.00,0,-999,0,0.00
2013-6-14,92,83,69,-100,-100,-100,0,0,100,0.00,40.00,0,-999,0,0.00
2013-6-15,91,76,65,-100,-100,-100,0,0,100,0.00,40.00,0,-999,0,0.00
2013-6-16,89,72,59,-100,-100,-100,0,0,100,0.00,40.00,0,-999,0,0.00
2013-6-17,81,69,59,-100,-100,-100,0,0,100,0.00,40.00,0,-999,0,0.00
2013-6-18,84,75,64,-100,-100,-100,0,0,100,0.00,40.00,0,-999,0,0.00
2013-6-19,80,70,62,-100,-100,-100,0,0,100,0.00,40.00,0,-999,0,0.00
2013-6-20,85,70,62,-100,-100,-100,0,0,100,0.00,40.00,0,-999,0,0.00
2013-6-22,93,82,76,-100,-100,-100,0,0,100,0.00,40.00,0,-999,0,0.00
2013-6-23,94,82,69,-100,-100,-100,0,0,100,0.00,40.00,0,-999,0,0.00
2013-6-24,94,79,72,-100,-100,-100,0,0,100,0.00,40.00,0,-999,0,0.00
2013-6-25,101,88,73,-100,-100,-100,0,0,100,0.00,40.00,0,-999,0,0.00
2013-6-26,98,78,56,-100,-100,-100,0,0,100,0.00,40.00,0,-999,0,0.00
2013-6-27,104,82,69,-100,-100,-100,0,0,100,0.00,40.00,0,-999,0,0.00
2013-6-28,94,80,67,-100,-100,-100,0,0,100,0.00,40.00,0,-999,0,0.00
2013-6-29,88,78,69,-100,-100,-100,0,0,100,0.00,40.00,0,-999,0,0.00
2013-6-30,80,69,59,-100,-100,-100,0,0,100,0.00,40.00,0,-999,0,0.00